[[{"header":{"parameterUnit":"m.s-1","parameterCategory":1,"la1":30.2991,"la2":30.254,"lo1":-89.0895,"lo2":-89.0444,"dy":0.0017,"dx":0.0017,"nx":28,"ny":28,"refTime":"2025-05-23T03:00:00:Z","depth":0,"parameterNumber":2,"parameterNumberName":"U-component_of_WINDS"},"data":[0,0,0,0,0,0,0,0,0,0,0,0,0,0,0,0,0,0,0,0,0,0,0,0,0,0,0,0,0,0,0,0,0,0,0,0,0,0,0,0,0,0,0,0,0,0,0,0,0,0,0,0,0,0,0,0,0,0,-1.5905,-1.5904,0,-1.585,-1.5849,-1.5848,-1.5772,-1.5771,-1.5769,-1.5768,-1.571,-1.571,-1.5709,0,0,0,0,0,0,0,0,0,0,0,0,0,-1.5944,-1.5944,-1.5905,-1.5904,-1.5904,-1.585,-1.5849,-1.5848,-1.5772,-1.577,-1.5769,-1.5767,-1.571,-1.571,-1.5709,0,0,0,0,0,0,0,0,0,0,0,0,0,-1.5912,-1.5944,-1.5905,-1.5859,-1.5854,-1.585,-1.5849,-1.5848,-1.5772,-1.577,-1.5769,-1.5767,-1.571,-1.571,-1.5709,-1.5745,0,0,-1.5708,-1.5708,0,0,0,0,0,0,0,0,-1.5914,-1.5911,-1.5867,-1.5862,-1.5857,-1.5816,-1.5842,-1.5814,-1.5773,-1.5804,-1.5768,-1.5766,-1.5747,-1.5743,-1.5737,-1.5742,-1.574,-1.5708,-1.5707,-1.5707,-1.5707,0,0,0,0,0,0,0,-1.5916,-1.5913,-1.5883,-1.5866,-1.586,-1.5841,-1.5834,-1.5836,-1.5787,-1.5801,-1.5795,-1.579,-1.5744,-1.5738,-1.5735,-1.5739,-1.5708,-1.5707,-1.5707,-1.5707,-1.5772,-1.5774,0,0,0,0,0,0,-1.5925,-1.5915,-1.5885,-1.5881,-1.5881,-1.5842,-1.5835,-1.5831,-1.5786,-1.5778,-1.5791,-1.5786,-1.5739,-1.5736,-1.5733,-1.5772,-1.5707,-1.5707,-1.5706,-1.577,-1.5772,-1.5775,0,0,0,0,0,0,-1.5927,-1.5923,-1.5887,-1.5897,-1.5891,-1.5843,-1.584,-1.5831,-1.5825,-1.5779,-1.577,-1.5794,-1.5738,-1.5733,-1.5743,-1.5769,-1.5707,-1.5706,-1.5768,-1.5771,-1.5773,-1.585,0,0,0,0,0,0,-1.5928,-1.5924,-1.5937,-1.5898,-1.589,-1.5898,-1.5842,-1.5831,-1.5824,-1.5817,-1.578,-1.5771,-1.5736,-1.5744,-1.5742,-1.5767,-1.5706,-1.5765,-1.5769,-1.5773,-1.5845,-1.5856,-1.5865,0,0,0,0,0,-1.593,-1.5961,-1.5938,-1.5935,-1.5906,-1.59,-1.5896,-1.5855,-1.5827,-1.5839,-1.581,-1.5773,-1.5767,-1.5746,-1.5743,-1.5768,-1.5763,-1.5768,-1.5772,-1.5841,-1.5854,-1.5864,0,0,0,0,0,0,-1.6004,-1.5954,-1.5929,-1.5948,-1.5929,-1.5887,-1.5902,-1.5869,-1.5857,-1.5851,-1.58,-1.5792,-1.5808,-1.5789,-1.5767,-1.5801,-1.5759,-1.5764,-1.5812,-1.5824,-1.5834,-1.5837,-1.5705,0,0,0,0,0,-1.6023,-1.6022,-1.5979,-1.6,-1.5992,-1.5949,-1.5945,-1.5915,-1.5893,-1.5884,-1.5856,-1.5836,-1.5829,-1.5826,-1.5817,-1.5843,-1.5834,-1.5859,-1.5868,-1.5877,-1.5881,-1.5893,-1.5904,-1.579,-1.579,-1.5789,0,0,-1.6061,-1.6034,-1.6036,-1.6014,-1.5996,-1.5997,-1.5942,-1.5945,-1.5945,-1.5884,-1.5891,-1.5871,-1.5845,-1.5863,-1.5869,-1.5847,-1.5911,-1.5882,-1.5889,-1.5889,-1.5899,-1.591,-1.592,-1.5793,-1.5792,-1.5792,0,0,-1.6131,-1.6111,-1.6126,-1.6109,-1.6082,-1.6054,-1.6058,-1.6021,-1.6005,-1.6012,-1.5967,-1.5966,-1.5956,-1.5939,-1.593,-1.5996,-1.5961,-1.5995,-1.6045,-1.6058,-1.6067,-1.6075,-1.6099,-1.6108,-1.5999,-1.6,-1.6,0,-1.6181,-1.6181,-1.6138,-1.6144,-1.6136,-1.6082,-1.6098,-1.6083,-1.6055,-1.6051,-1.6027,-1.6014,-1.5992,-1.6006,-1.6023,-1.6017,-1.602,-1.5998,-1.6069,-1.6077,-1.6083,-1.6105,-1.6114,-1.6004,-1.6003,-1.6003,-1.6003,0,-1.6245,-1.6245,-1.6261,-1.6236,-1.623,-1.6241,-1.62,-1.6199,-1.617,-1.6145,-1.6153,-1.6126,-1.6111,-1.6113,-1.6084,-1.6123,-1.611,-1.6079,-1.6036,-1.6099,-1.6119,-1.6127,-1.601,-1.6008,-1.6007,-1.6006,0,0,-1.6357,-1.631,-1.6317,-1.6305,-1.6273,-1.6272,-1.6282,-1.6268,-1.6268,-1.6251,-1.6258,-1.6251,-1.6223,-1.6212,-1.6182,-1.6193,-1.6248,-1.616,-1.6159,-1.6177,-1.6289,-1.6313,-1.6323,-1.6226,-1.6227,-1.6228,-1.6291,0,-1.6421,-1.6433,-1.6396,-1.6418,-1.6418,-1.6368,-1.6376,-1.6358,-1.6334,-1.6331,-1.6305,-1.6302,-1.6264,-1.6257,-1.6267,-1.624,-1.627,-1.6235,-1.623,-1.6231,-1.6238,-1.6333,-1.6357,-1.6418,-1.6299,-1.63,-1.6301,0,-1.6495,-1.6483,-1.6506,-1.6474,-1.6472,-1.648,-1.6465,-1.6463,-1.6441,-1.6424,-1.6413,-1.6379,-1.6385,-1.6346,-1.6355,-1.6332,-1.6328,-1.6315,-1.6316,-1.6313,-1.6269,-1.6333,-1.6437,-1.6446,-1.6313,-1.6312,-1.6311,0,-1.6575,-1.6565,-1.6577,-1.6569,-1.6531,-1.6538,-1.6523,-1.6499,-1.6494,-1.6482,-1.6478,-1.6466,-1.646,-1.6452,-1.6415,-1.639,-1.6429,-1.6386,-1.6414,-1.6415,-1.6423,-1.6423,-1.6528,-1.6423,-1.6422,-1.6422,-1.6422,0,-1.6649,-1.6665,-1.6613,-1.662,-1.6636,-1.6594,-1.6611,-1.6591,-1.6571,-1.6574,-1.653,-1.6534,-1.6486,-1.6484,-1.6456,-1.6468,-1.6465,-1.6451,-1.6443,-1.6454,-1.6456,-1.645,-1.6445,-1.6425,-1.6424,-1.6424,-1.6423,0,-1.674,-1.6706,-1.6716,-1.6681,-1.6672,-1.6686,-1.6655,-1.6661,-1.6636,-1.664,-1.6639,-1.6599,-1.6595,-1.6559,-1.6546,-1.6527,-1.655,-1.6534,-1.6558,-1.6552,-1.6583,-1.658,-1.6687,-1.6698,-1.6587,-1.6588,-1.6589,0,-1.6789,-1.68,-1.6766,-1.6765,-1.6752,-1.6751,-1.6746,-1.6706,-1.6702,-1.6679,-1.6688,-1.6681,-1.6673,-1.6669,-1.6639,-1.663,-1.6613,-1.6651,-1.6611,-1.6623,-1.6613,-1.6613,-1.6614,-1.6659,-1.6661,-1.6662,-1.6663,0,-1.6879,-1.6862,-1.6857,-1.6846,-1.6842,-1.6831,-1.6818,-1.6819,-1.6775,-1.6773,-1.6769,-1.6763,-1.6752,-1.6745,-1.6731,-1.6715,-1.6682,-1.6676,-1.6682,-1.6693,-1.6706,-1.6699,-1.658,-1.6673,-1.6672,-1.6671,-1.6671,-1.6671,-1.695,-1.6958,-1.6936,-1.6931,-1.6918,-1.6907,-1.6911,-1.6887,-1.6883,-1.6871,-1.6847,-1.6847,-1.6826,-1.6804,-1.6791,-1.679,-1.6771,-1.6779,-1.6781,-1.6784,-1.679,-1.6708,-1.6788,-1.6787,-1.6787,-1.6787,-1.6787,0,-1.7037,-1.7021,-1.7018,-1.7001,-1.6999,-1.6969,-1.6953,-1.6953,-1.6953,-1.6937,-1.693,-1.6927,-1.6921,-1.6891,-1.6882,-1.6887,-1.6872,-1.6886,-1.6885,-1.6882,-1.6808,-1.6804,-1.6899,-1.6899,-1.6899,-1.6899,-1.6899,-1.6899,-1.7082,-1.7094,-1.7075,-1.708,-1.7064,-1.7064,-1.7057,-1.7047,-1.7034,-1.7032,-1.7027,-1.7009,-1.6987,-1.6977,-1.697,-1.6962,-1.696,-1.698,-1.6966,-1.6898,-1.6887,-1.6877,-1.6872,-1.698,-1.698,-1.704,-1.704,-1.7041]},{"header":{"parameterUnit":"m.s-1","parameterCategory":1,"la1":30.2991,"la2":30.254,"lo1":-89.0895,"lo2":-89.0444,"dy":0.0017,"dx":0.0017,"nx":28,"ny":28,"refTime":"2025-05-23T03:00:00:Z","depth":0,"parameterNumber":3,"parameterNumberName":"V-component_of_WINDS"},"data":[0,0,0,0,0,0,0,0,0,0,0,0,0,0,0,0,0,0,0,0,0,0,0,0,0,0,0,0,0,0,0,0,0,0,0,0,0,0,0,0,0,0,0,0,0,0,0,0,0,0,0,0,0,0,0,0,0,0,2.4577,2.4577,0,2.4581,2.4581,2.4581,2.4628,2.463,2.4631,2.4632,2.4631,2.463,2.4629,0,0,0,0,0,0,0,0,0,0,0,0,0,2.4608,2.4607,2.4577,2.4577,2.4577,2.4581,2.4581,2.4581,2.4628,2.463,2.4631,2.4633,2.4632,2.463,2.4629,0,0,0,0,0,0,0,0,0,0,0,0,0,2.4601,2.4607,2.4577,2.4601,2.4604,2.4581,2.4581,2.4581,2.4628,2.463,2.4632,2.4633,2.4632,2.463,2.4629,2.4581,0,0,2.4623,2.4623,0,0,0,0,0,0,0,0,2.4602,2.46,2.4598,2.46,2.4602,2.4606,2.4591,2.4581,2.4627,2.4619,2.4632,2.4634,2.4621,2.462,2.4617,2.4581,2.4581,2.4623,2.4622,2.4621,2.4621,0,0,0,0,0,0,0,2.4602,2.46,2.4579,2.4598,2.46,2.4611,2.4612,2.459,2.4609,2.4619,2.4623,2.4623,2.4623,2.4618,2.4617,2.4581,2.4623,2.4622,2.4621,2.462,2.4507,2.4506,0,0,0,0,0,0,2.46,2.46,2.4578,2.4579,2.4607,2.4609,2.461,2.4603,2.461,2.4613,2.4621,2.4625,2.4621,2.4619,2.4617,2.4562,2.4621,2.462,2.4619,2.4509,2.4507,2.4505,0,0,0,0,0,0,2.46,2.4597,2.4578,2.459,2.4589,2.4607,2.4598,2.4602,2.4598,2.4611,2.4615,2.4614,2.4622,2.462,2.459,2.4563,2.4619,2.4617,2.4512,2.4509,2.4506,2.4452,0,0,0,0,0,0,2.4601,2.4597,2.458,2.459,2.4588,2.4552,2.4596,2.4601,2.4595,2.46,2.4605,2.4607,2.4623,2.4593,2.4589,2.4562,2.4616,2.4514,2.451,2.4507,2.4456,2.4448,2.444,0,0,0,0,0,2.4602,2.4564,2.4579,2.4576,2.4567,2.455,2.4549,2.4569,2.4593,2.4575,2.4584,2.4607,2.4567,2.4589,2.4585,2.4557,2.4516,2.4511,2.4507,2.446,2.4449,2.444,0,0,0,0,0,0,2.4548,2.4565,2.4582,2.4546,2.4547,2.4558,2.4537,2.4557,2.455,2.4554,2.4579,2.4579,2.4546,2.4549,2.4573,2.4512,2.4546,2.454,2.4511,2.4501,2.4493,2.4492,2.4615,0,0,0,0,0,2.4533,2.4519,2.4534,2.4501,2.45,2.4518,2.4512,2.4528,2.4528,2.4528,2.4535,2.4533,2.452,2.4511,2.45,2.4458,2.4459,2.4436,2.4428,2.4422,2.4416,2.4394,2.4384,2.4491,2.4491,2.4491,0,0,2.4499,2.4507,2.4496,2.449,2.4492,2.4476,2.4518,2.4499,2.4487,2.4525,2.4498,2.4502,2.4502,2.4466,2.4451,2.4468,2.4387,2.4416,2.4411,2.4409,2.4388,2.4378,2.4369,2.4488,2.4488,2.4489,0,0,2.443,2.4435,2.4408,2.441,2.4414,2.4426,2.442,2.4429,2.4434,2.4407,2.4435,2.4421,2.4398,2.4398,2.4394,2.4327,2.4347,2.4322,2.4279,2.4258,2.4249,2.4242,2.4217,2.4208,2.4317,2.4317,2.4317,0,2.4388,2.4366,2.4391,2.4371,2.4367,2.4403,2.4375,2.4375,2.4374,2.437,2.439,2.4363,2.4365,2.4329,2.4313,2.4309,2.4302,2.4321,2.4249,2.4241,2.4235,2.4212,2.4202,2.4314,2.4314,2.4314,2.4315,0,2.4314,2.4298,2.4276,2.4276,2.427,2.4246,2.4266,2.4257,2.4274,2.4284,2.4257,2.4261,2.4252,2.4245,2.426,2.4211,2.4222,2.4245,2.4279,2.4221,2.42,2.4191,2.4309,2.431,2.4311,2.4312,0,0,2.4209,2.4225,2.4216,2.4217,2.4224,2.4212,2.419,2.4182,2.4173,2.4172,2.4153,2.4134,2.4156,2.4152,2.4168,2.4148,2.4094,2.4174,2.4174,2.4158,2.404,2.4022,2.4011,2.4109,2.4107,2.4106,2.404,0,2.4142,2.4106,2.4129,2.4088,2.4074,2.4109,2.4089,2.4091,2.41,2.4089,2.4099,2.4085,2.4115,2.4113,2.4095,2.4104,2.4071,2.411,2.409,2.4089,2.4088,2.4,2.3981,2.3918,2.4032,2.403,2.4029,0,2.4059,2.4056,2.4015,2.4026,2.402,2.4002,2.3998,2.3987,2.399,2.3998,2.3994,2.4015,2.3993,2.4028,2.3998,2.4024,2.4017,2.4021,2.4019,2.4016,2.4055,2.3994,2.3898,2.3888,2.4016,2.4017,2.4018,0,2.3986,2.3971,2.3945,2.3944,2.3957,2.3943,2.3947,2.3952,2.3947,2.3942,2.3939,2.3931,2.3927,2.392,2.3938,2.3962,2.3905,2.3942,2.391,2.391,2.3895,2.3896,2.3796,2.3893,2.3893,2.3893,2.3894,0,2.3908,2.3881,2.3912,2.3896,2.3867,2.3893,2.3863,2.3871,2.3875,2.386,2.3889,2.3874,2.39,2.3887,2.3901,2.3874,2.3871,2.3877,2.388,2.3873,2.3873,2.3868,2.3873,2.3891,2.3891,2.3892,2.3892,0,2.3821,2.3841,2.3814,2.3829,2.3832,2.381,2.3822,2.3806,2.3819,2.38,2.3796,2.3815,2.3802,2.382,2.3808,2.3818,2.378,2.379,2.3779,2.3782,2.3749,2.3752,2.3642,2.3629,2.3735,2.3734,2.3733,0,2.3769,2.375,2.3763,2.3756,2.3759,2.3747,2.3742,2.3767,2.376,2.3763,2.3747,2.3737,2.373,2.3707,2.3719,2.371,2.372,2.3682,2.3719,2.3713,2.3719,2.3719,2.3717,2.3674,2.3673,2.3672,2.3671,0,2.3675,2.3686,2.3679,2.3675,2.3669,2.3666,2.3666,2.3658,2.3685,2.3676,2.3664,2.3658,2.3648,2.3637,2.3631,2.3634,2.3656,2.366,2.3652,2.3644,2.3638,2.364,2.3758,2.3662,2.3663,2.3664,2.3664,2.3664,2.3603,2.3588,2.3595,2.3586,2.3589,2.3588,2.3575,2.3587,2.3578,2.3572,2.3587,2.3571,2.3575,2.357,2.3571,2.3559,2.3575,2.3563,2.356,2.3557,2.3552,2.3641,2.3558,2.3558,2.3558,2.3559,2.3559,0,2.351,2.3517,2.3509,2.3509,2.3501,2.3525,2.3527,2.3518,2.3505,2.3507,2.35,2.3486,2.3476,2.3488,2.348,2.3468,2.3478,2.3465,2.3465,2.3465,2.3538,2.3545,2.3457,2.3457,2.3457,2.3457,2.3457,2.3457,2.3461,2.3436,2.3449,2.3425,2.3432,2.3418,2.3417,2.3416,2.3419,2.3402,2.3395,2.3403,2.3409,2.3402,2.3394,2.3398,2.3393,2.3376,2.3383,2.345,2.346,2.347,2.3477,2.3375,2.3375,2.3312,2.3311,2.3311]}]]